Other Public Products
Issued by NWS Grand Forks, ND

Home | Current Version | Previous Version | Graphics & Text | Print | Product List | Glossary On
Versions: 1 2 3 4 5 6 7 8 9 10 11 12 13 14 15 16 17 18 19 20 21 22 23 24 25 26 27 28 29 30 31 32 33 34 35 36 37 38 39 40 41 42 43 44 45 46 47 48 49 50
000
FPUS83 KFGF 190310
OPUFGF
PRAIRIE TO PINES WEATHER ROUNDUP
NATIONAL WEATHER SERVICE EASTERN NORTH DAKOTA/GRAND FORKS ND
1000 PM CDT FRI APR 18 2014

 **SATELLITE DATA USED TO AUGMENT SKY COVER AT AUTOMATED STATIONS**
 *****  WEATHER ACROSS EASTERN NORTH DAKOTA  *****

CITY           SKY/WX    TMP DP  RH WIND       PRES   REMARKS
GRAND FORKS    CLOUDY    45  27  49 SE29G40   29.92F
GRAND FORKS AF CLOUDY    44  29  55 SE20G29   29.91F
GRAND CITY NWS   N/A     43 N/A N/A SE41        N/A
BUXTON         NOT AVBL
DEVILS LAKE    MOCLDY    41  27  56 SE29G37   29.80F
FARGO          CLOUDY    45  29  53 SE29G44   29.92F
WAHPETON ARPT  CLOUDY    43  30  61 SE26G37   29.95F
$$

 *****  WEATHER ACROSS CENTRAL AND WESTERN NORTH DAKOTA  *****

CITY           SKY/WX    TMP DP  RH WIND       PRES   REMARKS
JAMESTOWN      MOCLDY    44  35  70 SE29G46   29.74F
BISMARCK       CLOUDY    50  39  66 NE14      29.59F
MINOT          CLOUDY    42  37  82 E17       29.72S HAZE
MINOT AFB      LGT RAIN  41  39  93 E15       29.72F
GARRISON         N/A     45  37  73 E15       29.68R
WILLISTON      PTCLDY    39  37  92 W3        29.67R FOG
DICKINSON      CLOUDY    48  40  73 N14       29.65R
HETTINGER      CLOUDY    50  41  71 NW22G32   29.66R
$$

 *****  OTHER OBSERVATIONS NORTHEAST NORTH DAKOTA  *****

CITY           SKY/WX    TMP DP  RH WIND       PRES   REMARKS
WALHALLA       FAIR      43  28  56 SE25G32   29.92F
LANGDON        MOCLDY    41  32  70 SE31G41   29.85F
CAVALIER       CLOUDY    43  30  61 SE15G25   29.95F
GRAFTON        MOCLDY    43  28  56 SE22G29   29.94F
CANDO          CLOUDY    41  28  60 SE33G41   29.79F
FORT TOTTEN    NOT AVBL
ROLLA          CLOUDY    37  32  81 SE22G29   29.81F
RUGBY          FAIR      41  32  70 SE22G29   29.74F
 ***** THE ABOVE OBSERVATIONS ARE NON NWS ARE NOT QUALITY
        CONTROLLED AND MAY MIS-REPORT RAIN FOR SNOW...
$$

 *****  OTHER OBSERVATIONS SOUTHEAST NORTH DAKOTA *****

CITY           SKY/WX    TMP DP  RH WIND       PRES   REMARKS
COOPERSTOWN    FAIR      41  32  70 SE32G44   29.82F
VALLEY CITY    MOCLDY    43  32  65 SE29G43   29.82F
OAKES          FAIR      46  37  71 SE26G37   29.78F
GWINNER        CLEAR     46  36  66 SE35G43   29.85F
SHEYENNE NWR     N/A     45  32  60 SE24      29.95S
BUFFALO        NOT AVBL
WYNDMERE       NOT AVBL
 ***** THE ABOVE OBSERVATIONS ARE NON NWS ARE NOT QUALITY
       CONTROLLED AND MAY MIS-REPORT RAIN FOR SNOW...
$$

  *****  WEATHER ACROSS NORTHERN MINNESOTA  *****

CITY           SKY/WX    TMP DP  RH WIND       PRES   REMARKS
FLAG ISLAND    CLOUDY    37  19  48 SE13G22   30.15S
WARROAD        CLOUDY    39  25  56 E14       30.13F
ROSEAU         CLOUDY    45  21  39 SE21G26   30.10F
HALLOCK        CLOUDY    45  27  49 E21G30    29.97F
THF RVR FALLS  CLOUDY    43  21  42 E23G33    30.02F
HALSTAD          N/A     43  27  52 SE32        N/A
FOSSTON        CLOUDY    39  23  52 SE15G28   30.04F
BAUDETTE       CLOUDY    41  18  39 SE9       30.16S
WASKISH        CLOUDY    43  19  39 SE15G23   30.17S
CROOKSTON      CLOUDY    45  27  49 SE23G33   29.97F
$$
  *****  WEATHER ACROSS CENTRAL AND WEST MINNESOTA  *****

CITY           SKY/WX    TMP DP  RH WIND       PRES   REMARKS
BEMIDJI        CLOUDY    40  19  42 SE20G26   30.13F
PARK RAPIDS    CLOUDY    41  23  48 SE21G26   30.12F
WADENA         CLOUDY    39  25  56 E20G28    30.09F
DETROIT LAKES  CLOUDY    41  28  60 SE25G39   30.03F
MOORHEAD       NOT AVBL
FERGUS FALLS   CLOUDY    43  27  52 SE26G36   29.97F
ELBOW LAKE     FAIR      42  31  63 SE23G33   30.00F
MORRIS MN      CLOUDY    46  34  61 SE31G39   29.99F
STAPLES        MOCLDY    39  21  48 SE10G17   30.14S
WHEATON        CLOUDY    46  37  71 SE33G43   29.95F
$$
  *****  WEATHER ELSEWHERE ACROSS MINNESOTA  *****

CITY           SKY/WX    TMP DP  RH WIND       PRES   REMARKS
DULUTH         CLOUDY    33  22  63 E16       30.29S WCI  23
INTRNTL FALLS  CLOUDY    39  18  42 SE12      30.23R
ELY            MOCLDY    32  21  64 SE8       30.31R WCI  25
CLOQUET        CLOUDY    34  23  64 E8        30.29R
BRAINERD       CLOUDY    45  21  38 SE13G20   30.20F
HIBBING        CLOUDY    36  19  50 SE12      30.28R
ALEXANDRIA     CLOUDY    40  28  62 E21G30    30.08S
SAINT CLOUD    MOCLDY    42  25  50 E10       30.17F
MINNEAPOLIS    MOCLDY    47  28  47 E13       30.21R
$$

  *****  WEATHER ACROSS SOUTH DAKOTA  *****

CITY           SKY/WX    TMP DP  RH WIND       PRES   REMARKS
SIOUX FALLS    CLOUDY    59  37  44 S20G29    29.94S
BROOKINGS      NOT AVBL
WATERTOWN      CLOUDY    54  37  52 SE18G31   29.88F
HURON          CLOUDY    62  41  46 SE21G28   29.79R
SISSETON         N/A     45  37  73 S24G32    29.91F
ABERDEEN       PTCLDY    56  39  53 SE25G36   29.74F
MITCHELL       CLOUDY    63  42  46 SE21G31   29.84R
PIERRE         MOCLDY    68  41  37 S21G30    29.62S
MOBRIDGE       CLOUDY    61  41  47 S25       29.55R
RAPID CITY     MOCLDY    59  38  45 N22G29    29.65R
$$

  *****  SOME WEATHER IN NEARBY STATES *****

CITY           SKY/WX    TMP DP  RH WIND       PRES   REMARKS
GLASGOW MT     PTCLDY    40  37  89 SW6       29.70F
GREAT FALLS MT CLEAR     41  18  39 SW16G25   29.82R
CHEYENNE WY    CLOUDY    58  29  33 SW6       29.92R
SCOTTSBLUFF NE CLOUDY    72  30  21 S16       29.76R
OMAHA NE       CLOUDY    60  40  47 S13       30.09R
DES MOINES IA  PTCLDY    57  35  43 SE12      30.18S
DAVENPORT IA   CLEAR     49  31  49 E9        30.29R
CHICAGO IL     CLEAR     38  26  62 NE9       30.38R
EAU CLAIRE WI  CLEAR     44  24  45 E9        30.28S
LA CROSSE WI   CLEAR     49  27  42 E9        30.26F
$$

  *****  SOME NATIONAL WEATHER *****

CITY           SKY/WX    TMP DP  RH WIND       PRES   REMARKS
LA GUARDIA NY  CLOUDY    42  32  67 S8        30.28F
RALEIGH NC     LGT RAIN  50  47  89 CALM      30.28S
ATLANTA GA     LGT RAIN  50  47  89 NE15      30.14F FOG
NEW ORLEANS LA PTCLDY    64  55  72 NE9       30.13R
OKLAHOMA CITY  PTCLDY    57  43  59 SE8       30.13R
ALBUQUERQUE NM CLOUDY    69  28  21 SW13      30.05R
SALT LAKE CITY MOCLDY    57  43  59 NW7       29.93R
LOS ANGELES CA MOCLDY    61  53  75 W10       29.91R
BOISE ID       PTCLDY    56  21  25 CALM      29.96R
SEATTLE WA     MOCLDY    55  33  43 NE8       30.01F
$$

*** WEATHER ACROSS MANITOBA...SASKATCHEWAN AND ONTARIO ***
                ***ONTARIO***

CITY           SKY/WX    TMP DP  RH WIND       PRES   REMARKS
GERALDTON      CLEAR     25  16  68 CALM      30.38S
THUNDER BAY    PTCLDY    28  25  86 CALM      30.41R
SIOUX LOOKOUT  CLEAR     36   9  32 SE5       30.29R
TORONTO        CLEAR     39  30  70 NW10      30.28S
BIG TROUT LK   CLEAR     27  12  54 E5        30.38R WCI  21
PICKLE LAKE    NOT AVBL
DRYDEN         MOCLDY    34  18  51 SE9       30.27R
KENORA         NOT AVBL
$$
                *** MANITOBA***

CITY           SKY/WX    TMP DP  RH WIND       PRES   REMARKS
BRANDON        LGT RAIN  37  34  87 E20G31    29.88R
DAUPHIN        LGT SNOW  34  32  93 SE21G29   29.91F WCI  22
ISLAND LAKE    PTCLDY    34  12  40 E5        30.27R
PILOT MOUND      N/A     39  34  81 E25G31      N/A
THE PAS        CLOUDY    34  16  47 SE8       30.08S
THOMPSON       CLEAR     32   9  37 E5        30.23S
WINNIPEG       CLOUDY    43  21  42 SE22G30   30.05F
LYNN LAKE      CLEAR     28   5  37 SE6       30.14R WCI  22
CHURCHILL      CLEAR     14  10  85 S10       30.37S WCI   1
GILLAM         CLEAR     28  18  64 E5        30.34R WCI  23
$$
                ***SASKATCHEWAN***

CITY           SKY/WX    TMP DP  RH WIND       PRES   REMARKS
ESTEVAN        LGT RAIN  41  39  93 SE16      29.67R
KINDERSLEY     CLOUDY    36  34  93 NE9       29.62R
LLOYDMINSTER   CLOUDY    32  30  93 E7        29.74R
PRINCE ALBERT  LGT SNOW  30  28  93 E17G30    29.82S VSB 1   WCI  18
REGINA         LGT RAIN  37  36  93 SE10      29.66R



USA.gov is the U.S. government's official web portal to all federal, state and local government web resources and services.